TimeMST,TemperatureF,Dew PointF,Humidity,Sea Level PressureIn,VisibilityMPH,Wind Direction,Wind SpeedMPH,Gust SpeedMPH,PrecipitationIn,Events,Conditions,WindDirDegrees,DateUTC
12:53 AM,32.0,23.0,69,30.10,10.0,WNW,15.0,-,N/A,,Overcast,300,2013-01-16 07:53:00
1:53 AM,33.1,24.1,70,30.11,10.0,WNW,13.8,-,N/A,,Overcast,300,2013-01-16 08:53:00
2:53 AM,34.0,23.0,64,30.12,10.0,NW,18.4,-,N/A,,Overcast,310,2013-01-16 09:53:00
3:53 AM,33.1,21.9,64,30.14,10.0,WNW,16.1,24.2,N/A,,Overcast,300,2013-01-16 10:53:00
4:53 AM,30.2,19.4,64,30.05,10.0,WNW,15.0,-,N/A,,Partly Cloudy,300,2013-01-16 11:53:00
5:53 AM,28.9,19.0,67,30.17,10.0,WNW,15.0,-,N/A,,Scattered Clouds,300,2013-01-16 12:53:00
6:53 AM,28.9,19.9,69,30.18,10.0,NW,13.8,19.6,N/A,,Partly Cloudy,310,2013-01-16 13:53:00
7:53 AM,30.9,21.0,67,30.19,10.0,NW,13.8,-,N/A,,Clear,310,2013-01-16 14:53:00
8:53 AM,34.0,21.9,61,30.18,10.0,NW,16.1,-,N/A,,Clear,310,2013-01-16 15:53:00
9:53 AM,37.9,23.0,55,30.17,10.0,WNW,16.1,24.2,N/A,,Clear,300,2013-01-16 16:53:00
10:53 AM,41.0,24.1,51,30.18,10.0,NW,19.6,25.3,N/A,,Clear,310,2013-01-16 17:53:00
11:53 AM,43.0,26.1,51,30.15,10.0,NW,11.5,19.6,N/A,,Clear,310,2013-01-16 18:53:00
12:53 PM,44.6,26.6,49,30.10,10.0,NW,20.7,26.5,N/A,,Clear,320,2013-01-16 19:53:00
1:53 PM,46.0,27.0,47,30.16,10.0,NW,19.6,24.2,N/A,,Clear,320,2013-01-16 20:53:00
2:53 PM,46.9,27.0,46,30.17,10.0,NNW,15.0,-,N/A,,Clear,330,2013-01-16 21:53:00
3:53 PM,44.1,28.0,53,30.21,10.0,NNW,9.2,-,N/A,,Clear,330,2013-01-16 22:53:00
4:53 PM,39.0,26.1,60,30.25,10.0,NNW,10.4,-,N/A,,Clear,330,2013-01-16 23:53:00
5:53 PM,37.9,26.1,62,30.28,10.0,NW,11.5,-,N/A,,Clear,320,2013-01-17 00:53:00
6:53 PM,36.0,26.1,67,30.32,10.0,NW,12.7,-,N/A,,Clear,310,2013-01-17 01:53:00
7:53 PM,35.1,25.0,67,30.34,10.0,NNW,13.8,-,N/A,,Clear,330,2013-01-17 02:53:00
8:53 PM,35.1,24.1,64,30.35,10.0,NW,12.7,-,N/A,,Clear,310,2013-01-17 03:53:00
9:53 PM,33.1,24.1,70,30.36,10.0,NW,10.4,-,N/A,,Clear,310,2013-01-17 04:53:00
10:53 PM,33.1,23.0,66,30.37,10.0,NW,15.0,-,N/A,,Clear,310,2013-01-17 05:53:00
11:53 PM,32.0,21.0,64,30.37,10.0,NW,12.7,-,N/A,,Clear,310,2013-01-17 06:53:00